Wind_Speed
23 23 22 22 23 24 24 25 26 25 23 21 19 18 18 18 18 17 17 18 19 20 20 21 21 22 20 18 16 15 15 14 14 14 14 13 12 11 10 10 9 8 8 8 8 8 7 7 6 6 6 6 6 6 6 6 5 5 4 4 5 5 5 5 6 6 6 7 8 9 10 9 8 8 8 9 10 12 13 14 14 14 13 12 10
25 26 25 23 23 24 25 26 27 27 26 23 21 19 18 19 18 18 17 17 18 18 19 20 20 20 19 17 16 15 16 15 14 13 14 13 12 12 11 10 10 9 8 8 8 8 7 7 6 6 6 6 6 7 6 6 5 5 5 5 5 5 5 5 5 5 6 7 8 10 11 10 8 7 8 8 9 10 12 13 13 13 13 12 11
28 29 28 25 24 24 26 27 26 26 26 25 23 21 20 19 19 19 18 17 17 17 18 19 19 19 18 17 17 16 16 15 14 14 14 13 12 11 11 10 10 9 8 8 8 8 7 7 7 6 6 6 7 7 7 6 6 6 5 5 5 5 5 5 5 5 5 5 6 9 10 11 9 8 7 8 8 9 10 11 12 12 12 12 12
28 30 29 28 25 25 26 27 27 26 27 27 24 22 21 20 20 20 19 17 17 17 17 19 20 19 19 18 18 16 16 16 16 15 14 13 12 11 11 11 11 10 9 8 8 7 7 7 6 6 6 6 6 7 7 7 7 6 5 5 6 6 5 4 4 5 5 5 5 6 7 9 10 9 8 7 7 8 9 10 11 11 11 12 12
26 28 29 29 27 24 24 26 27 27 28 28 25 22 21 20 19 20 19 18 17 17 18 20 21 21 21 21 21 20 19 18 16 15 14 13 12 11 11 11 11 11 10 9 8 7 6 6 6 6 6 6 6 6 7 7 7 6 5 4 5 5 5 4 3 4 5 5 5 5 5 5 7 8 7 6 5 6 7 9 10 11 11 11 12
25 26 28 29 27 24 24 25 27 28 29 28 26 23 22 20 19 20 20 19 18 18 18 21 22 22 22 23 22 21 19 17 15 13 12 11 11 11 11 11 11 11 10 9 8 7 6 6 6 6 6 6 5 5 6 7 6 6 5 4 3 4 4 4 3 4 4 4 4 4 4 3 4 6 6 4 4 6 7 8 10 11 11 11 13
26 26 29 30 27 25 25 25 27 28 29 28 26 24 23 22 20 20 21 21 19 19 19 21 23 23 23 22 21 19 17 15 14 13 12 12 12 12 11 11 11 10 10 9 9 8 8 7 7 7 6 6 6 6 6 6 6 5 5 4 3 2 3 4 4 3 3 4 4 4 4 3 4 5 4 4 5 7 8 9 10 11 12 13 15
28 27 30 32 29 25 24 24 25 27 28 28 27 25 24 23 22 20 21 22 21 20 20 21 23 24 23 22 21 19 17 15 14 13 12 13 13 13 12 12 11 11 10 10 9 9 8 8 7 7 7 7 6 6 6 6 5 5 5 4 3 2 3 3 3 3 3 4 5 5 4 4 5 4 4 5 6 7 9 10 10 11 12 14 16
28 28 29 31 29 25 23 23 23 25 27 28 27 25 24 24 24 22 21 22 22 22 21 20 21 23 23 22 21 20 19 18 17 15 15 14 14 14 14 13 12 12 11 10 10 9 9 9 9 8 8 7 7 6 6 6 5 5 4 4 4 3 3 3 2 3 5 6 7 7 6 6 6 4 4 7 7 7 10 11 10 11 13 14 17
29 29 29 30 28 26 24 23 23 24 26 26 26 26 26 25 25 24 22 21 23 23 22 20 20 22 24 23 22 21 21 21 20 19 18 17 16 15 15 14 12 12 12 11 10 10 10 10 10 8 8 8 7 6 6 6 5 5 4 4 4 4 4 3 2 3 5 6 7 7 6 6 5 4 4 6 6 7 9 10 11 13 14 16 17
30 29 30 30 29 28 26 26 25 24 25 26 27 27 27 27 26 25 23 22 23 23 23 22 20 21 23 23 23 22 22 22 22 21 20 18 17 16 15 14 13 12 12 12 11 11 11 11 10 9 9 8 8 7 7 6 6 5 4 4 4 4 4 4 3 3 4 5 5 6 7 7 6 6 5 6 6 8 10 11 12 13 14 16 17
30 30 30 31 31 31 29 28 27 26 26 26 27 28 28 28 27 26 24 23 23 23 24 24 22 21 21 22 23 23 24 24 23 21 19 18 16 16 16 15 14 13 12 12 11 11 11 11 11 10 9 8 8 7 7 6 6 5 4 4 4 3 3 3 3 4 4 5 5 6 6 6 6 6 7 7 7 8 10 12 13 13 13 15 17
31 31 32 33 34 33 31 29 28 28 27 27 27 28 28 28 28 27 26 25 24 23 23 24 23 21 20 21 23 25 25 25 24 22 20 18 16 16 15 14 14 13 12 11 11 11 11 12 11 10 9 9 8 7 7 7 6 5 4 4 3 3 3 3 4 4 5 5 6 6 5 6 6 6 6 6 5 6 9 11 13 13 13 15 16
31 32 33 35 36 35 32 30 29 28 27 27 27 27 28 29 29 28 27 26 24 24 23 23 23 22 21 20 21 24 26 25 24 23 21 19 17 16 15 14 13 13 12 11 11 11 11 12 12 12 11 10 9 8 7 7 6 5 5 5 4 3 3 3 4 4 5 5 4 4 4 4 5 5 5 4 4 5 8 11 12 13 13 15 16
31 33 34 35 36 36 33 31 30 29 28 27 27 27 28 29 29 28 28 28 26 25 24 23 23 23 22 22 21 23 24 25 24 23 23 22 20 18 16 15 14 13 13 13 12 12 11 12 13 13 12 12 11 9 8 8 7 6 6 6 5 4 4 4 3 4 4 4 3 3 3 4 4 4 4 4 4 5 7 10 12 14 15 15 16
31 32 34 35 35 36 35 33 31 30 30 29 28 28 29 30 29 28 28 28 28 26 24 23 22 23 23 23 23 22 23 24 24 24 23 23 23 21 19 17 15 15 15 15 14 13 12 13 13 14 13 13 12 10 9 9 8 8 8 7 7 6 5 5 4 4 4 4 4 4 3 3 3 3 4 4 4 5 7 9 12 14 16 16 16
29 30 32 33 35 36 36 34 32 31 31 30 29 28 28 29 29 29 28 28 28 27 25 23 23 23 23 24 24 23 23 24 24 24 23 23 24 24 22 20 18 17 17 17 16 15 14 14 14 15 15 14 13 12 11 11 10 9 9 8 7 7 6 5 5 4 5 5 5 5 4 3 3 3 4 5 5 5 6 9 11 14 16 17 16
25 29 30 32 34 35 36 35 33 31 30 29 29 28 27 28 28 29 28 28 29 28 26 24 23 23 24 24 24 24 23 23 23 23 24 24 24 24 23 22 21 20 19 19 18 17 16 16 15 16 16 15 14 14 13 13 11 10 10 9 9 8 6 6 5 5 5 5 5 5 5 4 4 4 5 6 6 6 7 9 12 14 16 17 16
23 28 30 32 33 34 35 34 33 31 29 29 29 29 28 27 28 28 28 28 27 28 28 26 25 24 24 24 24 24 24 23 23 24 25 25 24 23 23 22 22 22 21 21 20 19 18 17 17 16 17 16 15 15 15 14 13 12 11 11 10 9 8 7 7 6 6 6 6 6 6 5 5 6 6 6 6 6 8 10 13 15 16 16 16
24 26 29 31 32 32 33 32 32 30 29 29 30 30 29 28 29 29 28 28 28 28 28 27 26 24 24 24 24 25 25 25 24 25 26 25 23 22 22 22 23 23 23 22 21 21 20 19 18 18 17 17 16 16 15 15 14 13 13 12 12 11 10 9 9 8 7 7 7 7 7 7 7 7 7 7 7 8 10 12 13 15 15 15 14
24 25 27 30 31 31 31 31 31 31 30 30 30 30 29 29 29 29 30 30 30 30 29 28 27 26 24 25 25 26 26 26 26 27 27 25 23 21 20 21 23 24 24 23 22 22 21 21 20 19 18 18 17 17 16 16 15 14 14 14 13 12 11 11 11 10 9 8 8 8 8 9 9 8 8 9 9 10 11 13 14 14 14 14 13
24 24 25 28 30 30 30 30 31 32 31 30 29 29 29 29 30 29 30 32 32 31 30 29 29 28 26 25 25 26 26 27 27 28 28 27 26 23 21 21 22 23 24 24 23 22 22 22 22 21 20 19 18 18 18 17 16 15 15 15 14 13 12 12 13 12 11 11 10 9 9 10 10 10 10 10 11 12 13 15 15 15 15 14 13
23 23 23 24 27 29 29 29 30 31 30 29 28 29 28 29 29 29 30 32 32 31 31 30 30 29 27 26 25 25 26 27 28 28 29 29 27 25 24 23 22 22 23 23 22 22 23 23 23 23 23 22 20 19 19 19 18 17 16 15 15 14 13 13 13 13 13 14 13 12 11 11 11 11 11 11 12 13 15 17 17 17 16 15 14
25 25 25 24 26 29 30 29 29 30 30 28 28 28 28 28 28 29 29 30 31 32 31 31 31 30 29 28 27 26 26 27 28 28 29 29 29 28 27 26 24 24 24 23 22 22 23 24 24 25 25 24 23 22 21 21 20 18 17 16 15 14 14 13 13 13 14 15 15 14 13 13 13 12 12 13 13 14 17 18 19 19 17 16 15
30 30 30 29 29 29 30 29 28 29 28 27 27 27 28 27 27 28 27 28 30 32 32 32 32 31 31 30 29 28 27 27 27 27 28 28 29 29 29 28 27 26 26 25 24 24 23 24 25 26 26 27 26 25 24 23 22 21 19 18 17 16 15 15 15 14 15 16 17 16 15 16 16 15 14 14 14 15 17 20 20 20 19 18 18
32 32 33 34 34 33 33 32 31 30 29 27 26 27 27 27 26 26 25 26 28 31 33 33 33 33 33 32 31 30 29 28 27 27 27 27 28 29 29 29 29 28 28 27 26 25 25 25 25 25 26 27 28 28 28 27 25 23 22 21 20 19 18 17 16 16 16 16 17 17 17 19 19 17 16 16 16 16 18 21 22 21 21 20 20
31 32 33 35 36 37 36 36 35 35 34 32 30 28 28 27 26 25 24 25 26 29 31 33 34 34 34 34 33 32 31 30 29 28 27 27 27 27 28 28 29 29 29 29 28 27 26 26 25 25 25 26 27 28 29 29 28 27 25 24 23 21 20 19 18 18 17 17 17 17 18 20 20 19 18 18 18 19 20 21 23 23 23 23 23
29 30 31 33 35 35 35 34 35 35 36 37 35 33 32 30 27 25 24 24 25 27 29 31 33 35 35 34 34 33 33 32 30 30 29 28 28 28 27 27 28 29 29 29 29 29 28 28 26 25 25 26 27 28 29 29 29 28 28 26 25 23 22 21 20 19 19 18 18 18 18 20 21 21 21 21 21 22 22 23 24 25 26 26 26
27 28 29 32 35 35 35 34 33 33 35 36 37 36 36 34 31 29 27 25 25 26 27 29 32 34 35 35 34 34 33 33 33 32 31 30 29 29 28 28 28 29 29 29 30 30 30 30 29 28 26 26 27 28 29 29 29 29 28 27 26 25 24 22 21 21 20 20 19 19 19 20 21 22 22 24 24 25 25 26 26 27 28 29 29
26 27 28 31 34 35 35 34 32 32 33 35 36 37 37 36 35 33 31 28 27 27 26 26 28 31 33 34 34 34 34 34 34 34 33 32 31 30 30 30 30 29 29 29 30 31 32 32 31 30 29 28 28 28 28 29 29 29 29 28 28 27 26 25 24 23 22 22 21 21 20 20 21 22 23 24 26 27 28 28 28 29 30 31 31
23 26 27 30 33 35 35 35 34 33 33 33 34 35 36 36 36 35 33 31 30 29 27 26 25 26 28 31 33 34 35 35 35 34 34 33 32 32 31 31 31 30 30 30 30 31 32 32 32 31 31 30 29 27 27 27 28 29 30 30 29 28 28 28 27 27 26 24 23 23 23 23 23 22 22 23 25 27 29 30 31 32 32 33 34
17 20 24 28 33 36 37 36 36 35 34 33 33 34 35 36 36 36 35 33 32 31 29 27 25 24 25 28 31 33 35 36 35 34 34 34 34 34 33 33 32 31 30 30 31 31 31 31 31 32 31 31 29 27 26 26 27 28 29 31 31 30 30 30 30 29 29 28 27 26 25 25 25 24 23 23 24 25 26 28 30 32 34 35 36
15 16 18 24 29 33 36 37 37 36 35 34 33 33 34 35 36 37 37 37 37 35 31 27 25 26 26 27 28 31 33 35 35 34 34 35 35 35 35 34 34 33 33 32 32 31 31 31 31 31 31 30 29 27 26 26 26 26 28 30 31 32 32 32 31 31 31 30 30 29 28 27 26 25 24 24 24 24 25 26 27 29 31 33 35
9 12 15 20 25 28 31 34 36 36 36 35 33 33 34 35 35 35 35 36 38 39 36 30 26 25 26 27 27 29 32 33 33 33 34 35 36 35 35 35 35 35 35 34 33 32 32 31 31 31 30 30 29 27 26 26 25 26 27 28 31 32 33 33 33 32 32 32 31 31 30 29 28 28 27 25 24 24 24 26 26 27 28 29 30
3 2 5 9 15 20 23 28 32 35 36 36 35 34 34 34 33 33 32 31 32 35 36 34 30 27 25 26 27 27 29 30 31 32 32 34 35 35 35 35 35 36 35 35 34 34 33 32 31 31 30 30 29 27 26 26 26 26 27 28 30 32 33 34 34 33 33 32 32 32 31 30 30 30 28 27 25 24 24 25 26 26 26 26 26
7 6 6 4 4 9 15 21 27 32 35 36 35 35 35 33 32 32 31 28 28 29 32 33 31 27 26 27 26 26 27 28 28 30 31 32 33 33 33 33 34 35 35 35 35 35 34 33 32 32 32 31 28 27 26 26 26 26 27 29 31 33 34 34 34 33 33 33 32 32 32 31 31 30 29 27 26 25 25 25 25 25 25 25 24
1 7 8 7 5 4 9 13 16 21 28 31 31 32 32 31 31 31 29 28 29 29 27 28 28 25 25 26 26 26 26 27 28 29 29 30 31 31 31 32 33 34 34 35 35 34 34 34 33 33 33 31 29 27 27 26 26 26 28 30 32 34 35 35 34 33 33 33 32 32 32 31 31 30 29 28 26 26 27 26 25 24 24 24 22
12 4 2 4 4 4 5 6 6 8 15 23 26 27 27 27 28 28 27 27 29 29 26 26 26 23 23 24 26 27 28 28 29 30 29 29 29 29 29 29 31 32 33 34 34 34 34 34 34 33 33 32 31 29 28 28 27 27 29 30 32 34 35 36 34 33 32 32 32 32 31 31 31 30 29 27 27 27 27 26 25 23 23 23 20
22 17 10 5 2 1 3 5 5 6 10 17 20 21 21 21 22 24 25 25 27 28 28 26 25 23 22 24 26 29 30 31 31 31 30 30 29 29 29 29 29 30 31 31 33 34 34 34 33 33 33 33 32 30 29 29 28 28 30 31 32 34 35 35 35 33 33 33 32 32 31 31 30 29 28 27 26 26 27 26 25 24 24 20 16
25 25 21 16 11 7 5 4 5 7 11 14 15 16 18 19 20 21 25 27 28 30 30 28 27 26 26 27 28 30 31 33 33 32 31 31 31 31 31 30 30 30 29 29 31 33 34 34 33 33 33 33 32 31 30 29 29 29 31 32 33 34 35 35 34 33 33 32 32 31 30 29 29 28 27 26 26 25 26 25 26 26 24 18 15
23 25 27 25 20 15 12 9 6 8 11 13 14 15 18 20 20 20 24 29 32 33 32 32 32 31 30 30 32 33 34 34 35 34 33 33 33 34 34 33 32 31 30 29 30 32 33 34 34 34 33 33 32 31 30 30 29 30 31 33 34 36 35 35 34 33 32 32 32 31 29 28 27 26 26 25 25 24 25 26 27 27 25 21 20
21 23 27 29 26 22 20 16 11 9 11 12 14 16 18 20 22 23 24 27 31 33 34 35 34 33 31 31 33 35 37 38 38 37 36 36 36 35 35 35 34 32 31 30 30 31 33 34 34 34 33 32 31 31 30 30 30 30 32 33 35 36 35 35 36 35 34 32 32 31 30 27 26 25 25 25 25 25 26 27 27 27 27 26 25
21 22 25 29 30 29 27 23 18 14 13 12 14 17 18 19 23 26 26 25 27 29 31 33 34 33 33 32 32 34 36 39 40 40 39 38 38 37 37 37 36 35 33 32 32 32 33 35 35 34 33 31 31 30 30 31 31 31 32 33 35 36 35 36 37 36 35 33 33 32 30 28 27 26 26 27 27 28 28 29 28 28 29 29 29
25 24 24 26 29 32 32 30 25 20 16 15 16 17 17 17 22 28 29 26 26 27 30 31 32 32 33 32 33 34 36 37 39 39 40 40 40 40 39 38 38 37 36 35 34 33 34 36 35 34 32 31 30 30 30 30 31 31 32 33 34 35 35 36 37 36 35 34 34 33 32 30 29 28 29 30 31 31 31 31 30 30 31 32 32
32 29 27 26 27 30 33 34 31 25 21 19 19 20 18 17 21 27 30 27 25 28 30 31 31 31 31 31 33 34 35 35 36 37 38 39 40 40 40 39 39 38 38 37 36 35 36 36 35 34 32 31 31 31 31 30 31 31 32 33 33 34 34 35 36 36 35 34 34 33 32 32 32 32 33 34 34 34 33 33 33 32 32 33 34
35 35 33 31 29 30 32 34 34 32 28 25 24 24 22 19 20 24 27 26 26 29 31 32 31 30 29 30 31 33 33 34 35 36 37 38 38 38 38 38 38 39 39 38 38 37 37 37 37 35 33 32 32 32 31 31 31 32 32 32 33 33 33 33 35 35 34 34 34 34 34 34 34 35 36 36 36 36 36 35 35 34 33 33 34
34 36 36 35 34 32 32 33 34 35 35 32 29 29 28 25 23 23 25 27 28 30 31 32 33 32 30 30 31 32 32 32 33 34 36 37 37 38 39 39 39 39 39 39 39 39 39 39 38 37 36 36 35 33 32 31 32 32 32 32 33 33 33 33 35 34 33 32 32 32 33 34 34 35 36 37 37 37 37 36 35 34 34 33 34
30 33 36 37 36 35 33 32 33 34 36 37 36 34 33 31 28 26 25 26 27 29 31 33 34 34 33 32 33 33 33 32 32 32 33 35 37 38 39 41 41 39 38 39 39 40 40 40 39 38 39 39 39 36 33 32 32 31 31 32 34 34 35 35 34 33 31 31 31 32 32 33 33 33 34 35 36 36 36 36 35 35 34 34 34
27 30 33 36 36 36 35 34 33 33 33 37 39 39 38 36 33 31 30 28 27 28 30 32 34 35 35 35 35 35 35 33 32 32 32 32 34 37 39 41 42 41 39 38 38 39 40 40 40 41 41 42 41 39 36 35 35 34 33 33 33 33 34 35 34 33 33 33 34 34 33 33 32 32 32 32 33 34 35 35 34 34 34 35 35
26 28 30 33 35 36 36 35 35 35 33 34 37 41 42 41 38 36 34 31 29 29 30 31 33 35 37 37 36 36 36 35 34 33 32 32 32 34 38 41 42 42 41 39 39 39 38 38 40 42 42 42 42 40 39 39 39 37 35 33 32 30 32 34 34 34 35 36 36 36 35 33 32 31 31 31 31 31 32 32 32 32 33 35 34
26 27 29 31 33 35 36 35 35 36 35 33 34 39 43 44 43 41 37 35 33 32 31 32 33 35 36 37 37 37 37 37 35 34 33 33 32 33 35 39 41 41 40 39 39 38 36 37 40 42 42 43 42 42 42 42 41 40 38 35 32 31 31 32 34 36 37 37 37 37 36 35 33 32 31 30 30 30 30 28 28 30 32 33 33
Wind_Direction
205 208 205 199 194 193 194 194 197 201 202 201 202 200 195 194 192 187 188 191 190 189 191 191 188 184 186 187 180 179 182 178 178 176 168 167 168 165 164 158 156 155 150 151 147 143 140 141 150 156 160 161 160 165 169 177 179 173 172 153 144 144 135 128 125 132 149 150 144 134 124 119 110 103 110 123 130 130 123 116 113 112 110 104 96
205 209 211 207 200 196 195 194 195 200 203 203 203 202 198 196 194 190 191 195 195 193 193 195 192 187 186 188 184 182 184 180 179 181 173 171 170 167 168 163 160 161 158 156 150 146 146 149 158 163 165 165 164 169 172 177 176 172 170 158 157 158 142 133 127 135 154 157 147 132 122 121 122 120 125 136 141 134 126 122 120 120 118 112 103
205 208 213 213 207 202 200 196 195 198 203 206 205 202 201 198 195 193 193 196 198 196 194 195 194 189 186 189 188 184 185 182 181 185 178 174 173 169 171 167 162 163 163 162 157 153 152 153 157 158 162 165 164 168 171 175 176 172 166 159 165 163 152 146 140 141 151 157 151 136 128 128 132 139 144 151 152 137 128 126 125 124 121 116 107
206 207 212 215 213 209 204 199 196 196 200 207 208 204 202 200 196 194 193 194 199 198 194 194 196 194 190 191 191 187 188 187 184 186 181 176 175 173 173 170 167 168 169 171 167 159 157 156 155 154 156 162 166 170 176 178 178 173 164 162 164 161 160 163 155 149 148 157 157 142 136 136 139 148 156 161 158 145 134 131 131 127 121 114 106
212 209 211 215 217 213 208 202 199 198 200 206 208 206 204 202 198 196 195 194 196 198 195 195 199 198 196 195 192 189 191 191 184 182 181 177 175 175 175 173 172 175 177 179 177 171 169 164 158 154 157 164 167 171 180 181 176 171 167 164 163 162 166 173 171 159 154 160 156 145 149 149 144 147 155 167 170 161 147 140 139 133 124 115 108
219 215 213 217 220 216 212 207 203 201 200 205 207 206 206 206 201 197 198 197 195 197 197 198 201 201 201 200 195 191 192 189 181 180 183 181 179 179 179 176 178 181 181 183 183 181 181 176 166 162 164 166 166 171 177 178 174 169 164 163 169 172 171 174 181 173 171 173 159 149 157 160 147 141 149 174 186 177 161 150 148 139 130 123 117
219 217 214 219 223 219 213 209 205 201 199 203 206 205 205 208 206 200 199 199 196 197 199 200 203 204 204 204 199 195 194 191 183 183 187 188 188 189 186 181 180 183 183 185 185 184 189 186 174 171 172 169 169 175 175 174 173 167 161 162 167 179 180 179 184 184 189 191 174 162 164 171 165 152 162 198 195 181 166 159 156 146 138 132 127
219 217 215 219 225 223 216 210 207 201 198 202 205 205 204 206 209 205 201 201 199 199 202 203 205 207 206 205 201 196 194 195 193 189 192 196 196 196 196 187 183 186 187 187 189 188 192 192 181 176 176 174 172 175 177 175 174 169 164 164 162 166 179 178 178 178 180 187 188 187 186 189 189 185 190 192 188 176 162 160 161 152 144 137 133
222 221 218 220 224 225 220 214 210 204 199 201 205 206 205 205 208 208 203 202 202 202 204 206 206 209 209 208 204 197 192 195 198 198 199 202 201 200 202 196 188 189 191 191 193 195 197 197 191 185 181 178 175 178 182 177 172 174 171 171 174 172 177 178 172 172 173 176 188 198 196 194 198 201 188 180 180 171 158 157 162 158 149 140 136
222 224 223 224 225 225 223 219 214 209 203 202 205 207 207 206 207 207 204 203 204 205 206 208 208 209 211 209 206 201 197 196 199 201 202 204 205 203 204 204 197 194 196 196 197 201 204 201 199 198 189 182 180 183 186 181 174 176 174 179 186 181 180 187 178 176 180 177 182 190 185 181 187 191 190 186 180 169 158 155 163 161 150 143 140
220 222 223 225 227 226 225 222 217 212 208 205 204 205 207 208 208 207 205 204 205 207 208 210 210 211 212 210 207 204 203 201 202 204 205 206 208 207 206 206 205 203 202 202 201 205 208 205 202 205 199 188 186 189 190 190 183 175 176 184 189 183 182 192 184 176 182 178 177 178 170 165 172 175 168 159 157 163 162 159 162 158 150 147 146
219 221 222 223 225 225 223 222 219 215 211 207 203 203 206 209 209 208 207 206 207 208 210 211 212 212 213 212 207 206 206 206 206 209 210 210 212 214 211 208 209 211 210 207 206 208 211 210 205 206 207 198 196 195 191 194 190 178 181 188 191 186 181 186 182 172 172 173 174 176 172 167 171 171 156 143 143 156 163 159 156 154 152 152 150
220 219 219 221 223 223 221 219 218 215 212 208 203 202 205 208 209 209 208 208 209 209 210 213 215 213 213 213 209 207 208 208 208 212 215 215 217 219 219 215 212 213 215 213 213 213 213 215 211 208 211 209 207 202 196 199 195 185 187 193 199 197 187 183 177 169 165 167 169 172 175 175 177 179 170 157 146 155 163 159 154 156 158 157 154
223 220 218 219 222 223 223 220 218 216 212 209 206 204 205 207 209 209 209 210 211 212 211 213 216 215 213 213 212 210 209 209 209 211 214 217 219 221 222 222 218 216 217 217 219 219 216 217 214 210 212 213 213 209 203 205 201 197 200 202 206 205 200 191 173 164 163 161 162 166 174 181 183 188 185 171 159 163 168 163 159 163 164 161 158
226 223 220 220 221 224 225 224 221 218 214 211 209 206 205 207 209 209 209 210 212 214 214 213 214 216 215 214 214 213 212 211 210 211 214 217 220 221 220 221 219 218 218 220 223 224 222 220 218 215 213 213 215 213 209 209 207 210 213 208 208 210 209 207 187 172 171 169 173 180 190 194 184 181 175 164 164 173 173 169 167 168 168 165 161
230 226 223 222 222 224 226 226 224 222 219 215 211 207 206 207 209 210 210 211 212 215 216 214 214 216 217 215 215 214 213 212 212 212 213 215 219 222 222 220 219 218 220 223 225 226 226 225 223 220 217 215 216 215 214 215 213 219 223 215 212 212 209 212 209 197 195 200 202 200 206 211 191 177 171 163 170 181 180 175 172 170 169 167 164
235 231 227 224 224 225 227 228 227 224 221 218 214 210 208 208 209 210 211 211 212 215 216 216 215 216 218 217 216 215 214 213 213 214 215 216 219 222 223 222 219 217 219 224 227 227 228 228 226 224 220 217 216 215 217 220 219 220 226 224 221 219 213 213 217 213 211 215 215 210 213 218 211 203 191 180 181 189 186 181 177 174 171 169 166
239 237 233 228 227 227 228 229 229 227 224 221 218 214 210 210 210 211 212 212 211 213 216 216 216 217 218 218 217 216 216 214 213 215 218 220 221 223 224 224 223 220 220 223 226 227 228 229 229 227 223 219 218 217 216 220 224 225 227 229 228 227 224 223 225 222 218 223 227 224 220 214 208 213 211 197 189 192 192 185 180 175 171 169 168
238 237 235 232 230 230 230 230 230 230 227 224 222 219 214 211 210 210 212 214 214 214 216 218 218 217 218 219 219 217 217 214 212 214 219 222 224 224 224 225 226 226 224 224 226 228 229 230 231 231 228 224 222 221 218 218 222 226 230 233 232 231 230 232 234 232 227 226 230 232 230 225 210 203 209 208 200 201 199 188 180 176 172 170 170
235 236 235 234 233 232 232 232 231 231 230 226 224 221 217 212 210 209 211 214 216 216 217 219 220 218 218 219 219 218 217 215 213 214 218 222 224 224 223 223 227 230 231 228 227 228 230 232 232 233 232 230 228 228 225 222 220 223 229 234 235 234 234 235 237 237 236 233 231 229 231 233 221 203 204 212 215 212 202 190 183 180 176 175 177
232 235 234 233 234 235 234 234 233 233 232 230 226 223 219 214 212 211 211 213 215 216 217 219 220 221 219 219 220 219 218 216 214 215 217 220 222 222 220 220 224 230 235 236 233 231 231 232 234 236 235 234 234 234 232 229 226 224 226 229 232 235 237 240 241 239 240 240 236 230 228 232 230 217 210 212 217 216 203 192 188 186 185 185 186
227 233 234 232 234 235 236 235 233 232 231 229 227 224 220 216 213 212 212 213 215 216 217 218 220 221 222 221 221 222 220 218 216 215 216 219 221 220 218 218 221 226 233 237 239 237 235 234 235 237 238 237 236 237 237 235 232 230 229 229 230 231 233 238 242 243 244 244 240 235 231 232 232 226 218 213 215 214 204 196 194 193 195 196 196
225 231 233 233 233 235 237 237 235 233 230 228 227 225 221 216 213 213 213 212 214 216 218 219 219 220 222 223 224 225 224 222 219 217 216 217 220 221 220 219 219 223 229 234 238 239 239 238 237 237 239 240 238 238 240 240 238 236 234 232 232 231 231 234 239 242 246 246 243 239 236 236 233 229 224 219 216 213 207 202 201 200 202 204 207
227 231 233 234 234 234 235 237 236 234 231 228 227 226 223 218 214 214 213 212 214 216 218 219 220 220 220 221 223 225 227 227 224 220 217 217 218 220 222 222 220 222 226 230 234 237 239 239 238 237 238 241 241 240 240 243 243 241 240 239 237 236 235 237 240 241 244 246 244 241 239 240 238 232 229 226 222 216 211 208 207 206 207 211 216
232 233 233 233 232 232 233 235 235 233 230 228 227 226 224 220 216 215 214 214 214 216 217 219 220 220 220 221 221 223 226 228 228 225 221 218 219 220 222 223 223 223 224 227 231 234 237 237 236 235 236 237 240 242 242 243 244 243 243 242 242 241 241 243 245 245 245 246 245 242 242 243 241 236 234 232 229 222 217 214 213 213 212 216 221
234 235 234 232 231 232 233 234 234 233 231 229 227 226 225 224 221 218 216 215 215 216 218 219 220 221 221 221 221 222 225 227 229 229 227 224 222 222 223 224 225 226 226 227 229 232 236 237 237 235 234 233 235 238 241 242 243 243 242 241 241 242 243 244 247 248 248 247 246 243 242 243 242 239 237 237 235 230 225 220 219 219 220 222 225
233 235 235 234 233 233 234 234 234 234 233 233 231 230 230 228 226 223 220 218 218 218 219 219 220 221 222 222 222 223 225 226 228 229 230 229 227 226 227 226 227 228 229 229 230 232 235 238 239 238 236 234 234 235 237 238 240 241 242 241 241 241 243 243 245 247 249 249 248 245 243 243 243 241 238 238 238 236 233 229 225 225 227 228 230
230 233 234 234 232 232 233 233 234 235 234 234 234 235 236 235 234 231 227 223 222 221 221 220 220 222 224 224 224 225 226 227 228 230 230 231 230 230 230 230 230 230 230 231 232 234 236 238 239 240 240 239 238 237 236 236 237 239 241 242 243 243 243 243 243 244 247 249 249 247 245 244 244 243 241 241 241 240 238 235 233 232 234 235 236
229 230 231 231 230 231 233 233 234 234 234 234 235 236 237 238 238 237 234 230 227 225 224 222 221 223 225 226 227 227 227 228 229 230 231 231 231 230 231 231 232 232 232 232 233 234 236 237 238 239 240 240 240 239 238 238 238 238 239 241 243 244 245 246 246 246 248 249 250 249 247 246 245 245 243 242 242 242 241 239 237 238 239 241 242
225 227 229 230 230 231 233 234 234 234 233 234 235 236 238 238 238 238 237 236 233 230 228 225 224 224 225 227 227 228 229 230 231 232 233 233 233 232 231 231 232 233 233 233 233 234 235 237 238 239 239 240 240 239 239 240 241 240 240 240 240 240 243 246 248 250 251 252 252 253 252 250 248 246 245 243 242 242 242 242 241 241 242 244 245
216 221 225 228 230 232 234 235 235 235 234 235 235 237 239 239 240 239 238 238 237 234 231 228 225 224 223 224 226 229 231 232 233 233 234 235 235 235 235 234 233 234 234 234 234 235 235 236 238 239 240 240 240 238 238 239 240 242 243 242 241 239 240 242 246 249 252 254 255 255 255 253 252 250 248 246 244 243 243 243 243 244 245 246 247
199 208 218 225 228 231 233 235 237 237 236 236 237 238 239 241 242 241 239 239 238 237 233 230 226 223 222 223 225 229 231 233 234 235 235 235 235 236 237 237 236 235 235 235 236 237 237 237 238 239 240 240 240 238 237 237 238 240 243 245 245 243 242 242 244 247 250 253 255 257 257 256 255 253 251 250 249 248 247 246 246 245 246 247 248
179 181 201 219 227 231 233 235 237 238 238 237 238 239 239 240 241 242 242 241 240 238 235 232 229 226 223 223 226 228 230 232 234 236 236 236 236 236 236 237 238 237 236 237 238 239 239 239 239 240 240 241 240 238 237 237 236 237 239 243 245 246 246 245 245 246 248 251 254 256 258 259 259 258 256 254 253 252 252 252 251 250 250 249 249
188 173 181 204 218 226 233 236 237 237 238 237 236 238 238 238 240 243 245 247 249 247 241 235 230 229 227 227 229 230 230 231 233 235 237 238 237 237 237 237 238 239 238 239 239 240 240 241 241 242 242 241 240 238 237 236 236 236 237 240 243 246 247 247 247 247 248 249 251 254 257 259 260 261 260 259 258 256 253 253 253 254 254 254 253
16 181 167 188 201 209 218 227 234 237 237 236 235 236 238 239 241 243 247 251 254 256 258 252 242 236 235 232 231 231 230 231 232 234 236 238 238 238 238 238 239 240 241 241 241 241 242 242 243 244 243 242 240 238 236 236 235 235 236 238 241 244 246 247 247 247 247 248 249 252 255 257 258 260 262 262 262 261 257 253 253 254 256 257 257
53 64 64 81 152 186 196 209 223 230 231 232 231 230 233 238 240 243 248 248 244 251 263 263 250 242 240 237 234 234 232 230 231 234 236 238 238 239 239 239 240 241 242 242 242 243 244 244 244 245 245 244 241 238 237 235 234 234 235 237 240 242 245 247 247 247 247 247 249 251 253 256 257 260 262 263 264 265 262 258 254 254 256 258 260
55 85 77 72 80 137 181 198 214 221 223 226 229 229 231 236 240 242 243 243 242 245 249 246 241 241 243 240 236 234 233 233 234 235 236 237 238 238 239 239 240 241 242 243 244 244 245 245 245 245 246 246 244 241 239 236 234 233 235 237 240 242 244 246 247 247 247 248 249 250 252 254 256 259 261 263 264 264 263 261 258 255 255 256 260
252 232 79 53 70 111 156 186 198 208 215 221 227 230 230 233 237 239 238 239 243 242 236 231 233 239 243 243 239 234 232 234 236 236 237 237 237 237 237 238 240 241 243 244 245 246 246 246 246 246 247 247 246 244 242 238 235 233 234 236 240 242 244 246 247 247 247 248 249 250 252 253 255 257 259 260 261 260 260 261 261 259 255 254 256
254 247 244 266 282 151 150 172 175 176 196 213 222 223 221 224 231 234 235 236 235 231 230 232 233 234 238 241 240 236 234 235 236 237 238 238 237 236 236 237 238 239 241 243 245 247 246 246 246 246 246 247 246 245 243 241 237 233 233 235 238 242 244 246 247 247 247 248 250 251 252 253 254 255 256 256 257 257 257 259 261 261 259 256 255
258 253 249 252 261 256 230 209 199 191 194 206 215 213 214 222 230 233 232 229 225 225 230 234 232 229 230 233 233 234 236 236 237 238 238 239 239 238 238 237 236 236 238 241 244 246 247 247 246 246 245 245 245 245 244 243 239 234 232 233 236 240 244 247 249 249 248 248 250 252 253 254 254 253 252 252 253 253 255 257 259 261 262 259 252
261 260 256 254 258 261 257 253 241 210 201 206 209 208 211 218 226 233 233 229 227 228 232 236 234 229 226 227 229 232 234 235 236 237 238 241 242 241 240 239 237 237 239 240 242 245 247 248 247 246 245 244 244 244 244 243 241 237 234 234 236 240 243 246 249 251 250 249 249 251 252 252 252 252 250 248 247 248 251 254 256 260 263 261 253
266 265 262 258 260 262 261 260 255 231 212 208 207 206 206 211 218 226 229 229 230 232 235 239 240 236 232 230 230 233 234 234 235 236 236 239 241 242 241 240 240 240 240 240 241 244 246 248 248 247 245 243 242 242 243 243 242 240 237 236 237 240 242 245 249 251 252 251 251 251 252 251 250 250 248 246 245 247 250 253 255 257 259 259 256
270 266 263 260 261 263 261 260 258 248 235 227 218 208 205 211 218 220 220 223 228 231 235 240 242 243 242 239 237 237 238 237 237 238 238 238 238 239 239 239 240 241 240 239 239 242 246 248 248 247 245 243 241 241 241 242 242 242 240 239 239 241 242 244 248 251 253 254 254 253 253 251 248 248 248 248 249 251 253 254 254 254 254 255 257
273 270 264 260 260 261 262 262 260 254 249 247 236 218 213 222 226 218 214 217 224 230 234 237 240 243 244 243 243 243 243 241 240 241 242 242 241 239 238 239 240 241 240 239 239 240 244 246 247 247 245 243 242 241 240 241 242 242 243 242 242 243 244 245 248 251 252 253 254 254 254 253 251 250 249 250 251 253 254 255 255 252 251 252 254
271 271 269 265 261 259 261 264 263 260 259 257 248 236 231 236 234 221 215 220 231 238 239 237 237 239 241 243 245 246 247 246 245 246 246 246 245 243 240 240 240 241 241 240 239 240 242 244 246 246 245 243 243 242 241 241 241 242 243 244 245 246 246 248 250 251 251 252 252 251 251 251 250 249 248 249 251 253 254 255 256 254 252 251 253
268 269 269 269 267 264 262 263 263 264 264 262 258 253 250 247 238 227 224 230 240 244 243 242 243 243 243 244 245 247 249 251 252 252 252 250 249 249 246 244 243 242 241 241 241 241 242 243 245 246 246 246 245 244 242 241 242 242 243 244 247 249 249 250 251 252 251 250 250 249 248 248 247 246 246 248 251 253 254 255 257 257 256 255 255
267 267 267 267 268 268 266 264 263 264 264 262 260 259 258 255 246 236 234 238 241 242 242 244 247 249 249 249 249 250 252 253 254 255 255 253 253 253 251 249 246 245 244 243 242 242 243 244 246 247 248 249 249 247 245 243 242 242 243 244 246 248 250 250 252 254 254 253 253 252 250 249 247 246 247 249 251 253 254 255 257 259 261 261 261
267 266 266 266 266 266 266 265 264 263 263 263 262 259 258 258 255 250 247 246 244 243 242 242 244 248 250 251 252 254 255 255 255 255 255 255 255 254 254 253 252 251 250 246 244 243 244 246 247 249 250 250 250 250 249 247 246 245 245 245 246 247 248 250 253 256 258 257 256 254 252 252 251 251 251 253 254 255 255 255 257 260 262 263 263
265 265 265 264 264 264 264 263 263 263 262 263 263 261 258 256 257 258 258 255 252 249 245 242 243 245 247 249 251 254 256 257 258 258 257 256 255 255 255 255 255 256 255 251 247 245 245 247 249 250 250 251 251 252 252 252 252 250 248 247 247 247 248 250 252 254 255 255 254 254 254 254 255 256 256 256 256 256 256 256 256 258 260 262 263
261 262 263 263 263 263 263 262 262 262 262 261 263 264 260 256 256 260 261 259 259 257 252 246 245 246 247 248 250 251 253 255 257 259 259 257 256 254 254 254 255 256 256 255 251 247 246 247 248 249 250 251 252 253 253 253 252 251 250 249 248 248 248 248 249 249 249 250 251 252 253 255 256 257 258 259 259 260 259 257 256 256 257 259 261
259 259 260 261 261 261 262 262 261 262 262 261 261 263 262 258 255 257 261 262 262 262 259 254 250 249 249 249 250 251 252 253 254 257 260 259 257 255 252 252 253 255 256 255 253 249 247 247 247 248 249 251 252 252 252 252 251 251 250 249 247 246 245 244 244 244 244 246 248 250 252 254 254 255 257 258 259 260 258 256 253 253 254 256 260
Height
3176 3178 3180 3183 3185 3187 3190 3191 3193 3194 3195 3197 3199 3200 3202 3204 3205 3206 3207 3209 3210 3211 3212 3213 3214 3216 3217 3219 3220 3221 3222 3223 3224 3225 3226 3226 3227 3228 3229 3229 3230 3231 3231 3232 3232 3233 3233 3233 3234 3235 3235 3235 3236 3236 3237 3237 3237 3237 3238 3238 3239 3239 3240 3239 3239 3239 3239 3240 3240 3240 3240 3239 3239 3239 3240 3240 3240 3240 3240 3240 3240 3241 3241 3241 3241
3175 3176 3178 3180 3183 3185 3188 3189 3191 3192 3194 3195 3197 3200 3201 3203 3204 3206 3207 3208 3209 3211 3212 3214 3215 3217 3218 3220 3221 3222 3223 3223 3224 3226 3226 3227 3227 3228 3229 3230 3230 3231 3232 3232 3233 3233 3233 3234 3234 3235 3235 3236 3236 3237 3237 3237 3238 3238 3238 3239 3239 3240 3240 3240 3240 3240 3240 3240 3240 3241 3241 3241 3241 3241 3241 3242 3242 3241 3241 3241 3242 3242 3242 3242 3242
3173 3174 3175 3178 3181 3183 3185 3187 3189 3191 3193 3194 3197 3199 3200 3202 3203 3205 3206 3208 3209 3211 3212 3214 3216 3217 3219 3220 3221 3222 3223 3224 3224 3225 3226 3227 3228 3228 3229 3230 3231 3231 3232 3233 3233 3234 3234 3234 3235 3235 3236 3236 3236 3237 3237 3238 3238 3238 3239 3239 3240 3240 3240 3240 3240 3241 3241 3241 3241 3241 3242 3242 3242 3243 3243 3243 3243 3242 3242 3243 3243 3242 3242 3243 3243
3170 3172 3174 3176 3178 3181 3183 3185 3188 3190 3192 3193 3195 3197 3199 3201 3202 3204 3205 3207 3209 3210 3212 3214 3215 3216 3217 3219 3220 3222 3223 3223 3224 3225 3226 3227 3228 3228 3229 3230 3231 3232 3232 3233 3234 3234 3234 3235 3235 3235 3236 3236 3237 3237 3238 3238 3238 3238 3239 3239 3240 3240 3240 3240 3241 3241 3241 3241 3242 3242 3242 3243 3243 3244 3244 3245 3244 3243 3243 3244 3243 3243 3243 3243 3243
3169 3171 3172 3174 3176 3178 3181 3184 3186 3188 3190 3192 3194 3196 3198 3200 3202 3203 3205 3206 3208 3210 3211 3213 3213 3214 3215 3217 3218 3219 3221 3222 3223 3225 3226 3227 3228 3229 3230 3231 3231 3232 3232 3233 3234 3234 3234 3235 3235 3236 3236 3237 3237 3238 3238 3238 3239 3239 3239 3239 3240 3240 3240 3240 3241 3241 3241 3242 3242 3242 3243 3244 3244 3244 3245 3245 3245 3244 3244 3245 3244 3244 3244 3244 3244
3168 3170 3172 3172 3174 3177 3180 3182 3184 3186 3188 3191 3193 3195 3197 3199 3201 3203 3204 3206 3208 3209 3211 3212 3213 3213 3214 3216 3217 3219 3220 3222 3224 3225 3227 3228 3228 3229 3230 3231 3232 3232 3232 3233 3234 3234 3234 3235 3236 3236 3237 3237 3238 3238 3239 3239 3239 3239 3239 3239 3239 3240 3240 3241 3241 3241 3241 3242 3242 3243 3243 3244 3244 3245 3245 3246 3246 3246 3245 3245 3245 3245 3244 3244 3245
3167 3169 3171 3172 3173 3176 3178 3180 3182 3184 3187 3190 3192 3194 3197 3198 3200 3201 3203 3205 3207 3208 3210 3211 3212 3213 3214 3216 3218 3219 3221 3223 3224 3225 3227 3228 3229 3229 3230 3231 3232 3232 3233 3233 3234 3234 3235 3235 3236 3237 3237 3238 3238 3238 3239 3239 3239 3239 3239 3240 3240 3240 3240 3241 3241 3241 3242 3242 3242 3243 3244 3244 3245 3245 3245 3246 3246 3246 3247 3246 3246 3246 3245 3245 3246
3165 3167 3169 3170 3171 3174 3176 3179 3181 3184 3186 3189 3191 3193 3195 3197 3199 3200 3202 3204 3205 3207 3208 3210 3211 3212 3214 3215 3217 3219 3221 3223 3224 3225 3226 3227 3228 3229 3231 3231 3232 3232 3233 3233 3234 3235 3235 3236 3237 3237 3238 3238 3239 3239 3239 3239 3240 3240 3240 3240 3240 3241 3241 3241 3241 3242 3242 3242 3243 3243 3244 3244 3245 3246 3246 3246 3246 3247 3247 3247 3247 3247 3247 3247 3247
3164 3166 3167 3169 3170 3172 3175 3178 3181 3183 3185 3187 3190 3192 3194 3196 3198 3199 3201 3202 3204 3206 3207 3209 3211 3212 3213 3215 3216 3219 3221 3222 3223 3224 3225 3227 3228 3229 3230 3231 3232 3232 3233 3234 3234 3235 3236 3236 3237 3238 3238 3239 3239 3239 3240 3240 3240 3240 3240 3240 3241 3241 3241 3241 3242 3242 3243 3243 3243 3243 3244 3245 3245 3246 3246 3246 3247 3247 3248 3248 3248 3248 3248 3248 3249
3162 3164 3166 3168 3169 3171 3174 3177 3180 3182 3184 3186 3188 3191 3193 3195 3196 3198 3199 3201 3202 3204 3206 3208 3210 3211 3212 3214 3216 3218 3220 3221 3222 3224 3225 3226 3228 3229 3230 3231 3232 3232 3233 3234 3235 3235 3236 3237 3238 3238 3238 3239 3239 3240 3240 3240 3240 3240 3240 3241 3241 3241 3242 3242 3242 3243 3243 3243 3243 3244 3244 3245 3245 3246 3247 3247 3247 3247 3248 3248 3249 3249 3249 3250 3250
3160 3162 3164 3167 3169 3171 3173 3175 3178 3180 3182 3184 3186 3188 3191 3193 3195 3197 3198 3200 3201 3203 3205 3207 3209 3210 3211 3213 3215 3217 3219 3221 3222 3223 3224 3226 3227 3229 3230 3231 3232 3232 3233 3234 3235 3236 3236 3237 3238 3238 3239 3239 3240 3240 3240 3241 3241 3241 3241 3241 3241 3242 3242 3243 3243 3244 3244 3244 3244 3244 3245 3245 3246 3246 3247 3247 3247 3248 3248 3248 3249 3250 3250 3251 3251
3158 3160 3162 3165 3166 3168 3170 3172 3175 3178 3180 3182 3184 3186 3189 3191 3193 3195 3197 3198 3199 3201 3203 3205 3207 3209 3211 3212 3214 3216 3218 3220 3221 3223 3225 3226 3228 3229 3230 3231 3232 3232 3233 3234 3235 3236 3237 3237 3238 3238 3239 3239 3240 3240 3241 3241 3241 3241 3241 3242 3242 3242 3242 3243 3243 3244 3245 3245 3245 3245 3246 3246 3247 3247 3248 3248 3248 3249 3249 3249 3249 3250 3251 3252 3252
3155 3157 3159 3162 3163 3164 3166 3169 3172 3175 3177 3179 3181 3184 3186 3189 3191 3193 3195 3197 3198 3200 3202 3203 3206 3208 3210 3211 3213 3215 3216 3218 3221 3222 3224 3226 3227 3228 3230 3231 3232 3233 3234 3235 3235 3236 3237 3237 3238 3239 3239 3239 3240 3240 3241 3241 3241 3242 3242 3242 3242 3243 3243 3243 3244 3244 3245 3245 3245 3246 3246 3247 3247 3248 3248 3248 3249 3249 3250 3250 3250 3251 3251 3252 3253
3153 3155 3157 3159 3160 3162 3164 3167 3169 3172 3175 3178 3180 3182 3184 3186 3189 3191 3194 3195 3197 3199 3200 3202 3204 3207 3209 3210 3212 3213 3215 3217 3219 3221 3223 3225 3226 3228 3229 3230 3232 3233 3234 3235 3235 3236 3237 3237 3238 3238 3239 3240 3240 3241 3241 3241 3242 3242 3242 3243 3243 3243 3243 3244 3244 3244 3245 3245 3246 3246 3246 3247 3248 3248 3249 3249 3249 3250 3250 3250 3251 3251 3252 3253 3254
3150 3152 3154 3156 3158 3160 3162 3165 3167 3170 3173 3175 3178 3180 3182 3184 3187 3189 3192 3194 3195 3197 3199 3200 3203 3205 3208 3209 3211 3212 3214 3216 3218 3220 3222 3224 3225 3227 3228 3230 3231 3232 3233 3234 3235 3235 3236 3237 3237 3238 3239 3240 3240 3241 3241 3241 3242 3242 3243 3243 3243 3244 3244 3244 3244 3245 3245 3245 3246 3246 3247 3247 3248 3248 3249 3249 3249 3250 3251 3251 3252 3252 3253 3253 3254
3148 3150 3152 3154 3156 3158 3160 3162 3165 3167 3170 3173 3175 3177 3180 3183 3185 3188 3190 3192 3194 3195 3197 3199 3201 3204 3206 3208 3209 3211 3212 3214 3216 3218 3220 3222 3224 3226 3227 3229 3230 3231 3232 3233 3234 3235 3235 3236 3237 3238 3239 3239 3240 3240 3241 3241 3242 3243 3243 3244 3244 3244 3245 3244 3244 3245 3245 3246 3246 3246 3247 3247 3248 3249 3249 3249 3250 3250 3251 3252 3252 3253 3254 3254 3255
3145 3147 3149 3152 3154 3155 3157 3159 3162 3165 3167 3170 3173 3176 3178 3181 3184 3186 3188 3190 3192 3194 3196 3198 3200 3202 3204 3206 3208 3209 3211 3213 3215 3217 3219 3221 3223 3224 3226 3227 3229 3230 3231 3232 3233 3234 3235 3235 3236 3237 3238 3239 3240 3240 3241 3241 3242 3243 3243 3244 3244 3244 3245 3245 3245 3245 3246 3246 3246 3247 3247 3247 3248 3249 3249 3249 3250 3251 3251 3252 3253 3253 3254 3255 3256
3143 3145 3147 3150 3152 3153 3155 3157 3159 3162 3165 3168 3171 3174 3177 3180 3183 3185 3187 3188 3190 3192 3194 3196 3198 3200 3202 3204 3206 3208 3210 3212 3213 3215 3217 3219 3221 3223 3224 3225 3227 3229 3230 3231 3232 3233 3234 3234 3235 3236 3237 3238 3239 3240 3240 3241 3241 3242 3243 3243 3244 3244 3244 3245 3245 3245 3246 3246 3246 3247 3247 3247 3248 3249 3249 3250 3250 3251 3252 3252 3253 3254 3255 3255 3256
3141 3143 3145 3147 3149 3151 3153 3155 3157 3160 3163 3166 3170 3173 3175 3178 3181 3183 3185 3188 3190 3191 3193 3195 3196 3198 3200 3202 3205 3207 3209 3210 3212 3214 3215 3216 3219 3221 3223 3224 3226 3227 3228 3229 3231 3232 3233 3233 3234 3235 3236 3237 3238 3239 3240 3240 3241 3242 3242 3243 3243 3244 3244 3245 3245 3245 3246 3246 3246 3247 3247 3247 3248 3248 3249 3250 3251 3251 3252 3253 3254 3254 3255 3256 3257
3139 3141 3142 3144 3147 3149 3151 3153 3156 3158 3161 3164 3167 3170 3173 3176 3178 3181 3184 3186 3188 3190 3191 3193 3195 3197 3199 3201 3203 3204 3207 3209 3211 3212 3213 3215 3217 3219 3221 3223 3224 3225 3226 3228 3229 3231 3232 3233 3233 3234 3235 3236 3237 3238 3239 3239 3240 3241 3242 3242 3243 3243 3244 3244 3245 3245 3245 3246 3246 3247 3247 3247 3248 3248 3249 3250 3250 3251 3252 3253 3254 3255 3255 3256 3257
3137 3139 3140 3143 3145 3147 3149 3152 3154 3157 3159 3162 3165 3167 3170 3173 3176 3179 3181 3183 3185 3187 3189 3191 3193 3195 3197 3199 3200 3202 3204 3206 3208 3210 3212 3214 3215 3217 3219 3221 3222 3224 3225 3226 3228 3229 3231 3232 3232 3233 3234 3235 3236 3237 3237 3238 3239 3240 3241 3242 3242 3243 3243 3244 3244 3245 3245 3246 3246 3246 3247 3247 3247 3248 3249 3249 3250 3251 3252 3253 3254 3255 3255 3256 3257
3136 3137 3139 3141 3144 3146 3148 3150 3153 3155 3157 3159 3162 3165 3168 3170 3173 3176 3179 3181 3183 3185 3187 3189 3191 3193 3195 3197 3199 3201 3202 3204 3205 3207 3209 3211 3213 3215 3217 3219 3220 3222 3223 3224 3226 3227 3229 3230 3231 3232 3233 3234 3235 3236 3236 3237 3238 3239 3240 3241 3241 3242 3243 3243 3243 3244 3245 3245 3245 3246 3246 3247 3247 3247 3248 3249 3250 3250 3251 3252 3253 3254 3255 3256 3256
3135 3137 3138 3140 3142 3144 3147 3149 3151 3153 3155 3157 3160 3162 3165 3168 3171 3174 3176 3179 3181 3183 3186 3188 3189 3191 3194 3196 3197 3199 3200 3202 3203 3205 3207 3209 3211 3213 3215 3216 3218 3220 3221 3222 3224 3225 3227 3228 3229 3230 3231 3232 3233 3234 3235 3236 3237 3238 3239 3240 3240 3241 3242 3242 3243 3243 3244 3244 3245 3245 3246 3246 3246 3247 3248 3248 3249 3250 3250 3251 3252 3253 3254 3255 3255
3132 3134 3136 3138 3141 3143 3145 3147 3149 3151 3153 3155 3158 3160 3163 3166 3168 3171 3174 3177 3180 3182 3184 3185 3187 3189 3192 3193 3195 3197 3199 3200 3201 3203 3205 3207 3209 3211 3212 3214 3216 3218 3219 3221 3222 3223 3224 3226 3227 3228 3229 3230 3232 3233 3234 3235 3236 3237 3238 3239 3239 3240 3240 3241 3242 3242 3243 3243 3243 3244 3245 3245 3246 3246 3247 3247 3248 3249 3250 3251 3251 3252 3253 3254 3254
3129 3131 3133 3135 3138 3140 3143 3145 3147 3149 3151 3154 3156 3158 3161 3164 3166 3169 3172 3175 3177 3179 3181 3183 3185 3187 3189 3191 3193 3195 3196 3198 3200 3201 3203 3205 3206 3208 3209 3211 3213 3215 3217 3219 3220 3221 3222 3223 3225 3226 3227 3229 3230 3231 3232 3233 3235 3236 3237 3237 3238 3238 3239 3240 3240 3241 3241 3242 3242 3243 3244 3244 3244 3245 3246 3246 3247 3248 3249 3249 3250 3251 3252 3252 3253
3126 3128 3129 3131 3134 3137 3140 3143 3146 3148 3150 3152 3155 3157 3159 3162 3164 3167 3170 3173 3175 3177 3179 3181 3183 3185 3187 3189 3190 3192 3194 3196 3198 3200 3202 3203 3204 3206 3207 3208 3210 3212 3214 3216 3217 3219 3220 3221 3223 3224 3225 3227 3228 3229 3230 3231 3233 3234 3235 3236 3236 3237 3238 3238 3239 3239 3240 3240 3241 3242 3242 3242 3243 3244 3245 3245 3246 3246 3247 3248 3249 3250 3250 3250 3251
3122 3125 3128 3130 3132 3134 3137 3140 3144 3146 3149 3151 3153 3155 3158 3160 3162 3165 3168 3170 3173 3175 3176 3178 3180 3183 3184 3186 3188 3190 3192 3194 3196 3198 3200 3201 3203 3204 3205 3206 3207 3209 3210 3212 3214 3216 3217 3219 3220 3222 3223 3224 3225 3226 3227 3229 3230 3231 3232 3234 3234 3235 3236 3236 3237 3238 3238 3239 3239 3240 3240 3241 3241 3242 3243 3244 3244 3245 3245 3246 3247 3248 3248 3248 3249
3120 3123 3126 3129 3131 3133 3135 3138 3141 3144 3147 3149 3151 3153 3156 3158 3160 3163 3166 3168 3170 3172 3174 3176 3178 3180 3182 3184 3186 3188 3190 3192 3194 3195 3197 3199 3200 3202 3203 3205 3206 3206 3207 3209 3211 3213 3214 3216 3217 3219 3220 3222 3223 3224 3225 3226 3227 3229 3230 3231 3232 3233 3234 3235 3235 3236 3236 3236 3237 3238 3238 3239 3239 3240 3241 3242 3242 3243 3243 3244 3245 3245 3246 3246 3247
3119 3122 3124 3126 3128 3131 3133 3136 3139 3142 3144 3147 3149 3151 3153 3155 3157 3160 3162 3165 3168 3170 3171 3173 3175 3177 3180 3182 3184 3186 3188 3190 3191 3193 3194 3196 3198 3199 3201 3202 3203 3204 3205 3207 3208 3210 3211 3212 3214 3216 3217 3219 3220 3221 3222 3224 3225 3226 3228 3229 3230 3231 3232 3232 3233 3233 3234 3234 3235 3236 3236 3237 3237 3238 3239 3239 3240 3240 3241 3242 3243 3243 3243 3243 3244
3118 3120 3122 3124 3126 3128 3131 3134 3136 3139 3142 3144 3146 3149 3151 3152 3154 3156 3158 3161 3164 3166 3168 3171 3173 3175 3178 3180 3182 3184 3185 3187 3189 3190 3192 3194 3195 3197 3198 3199 3200 3202 3203 3205 3206 3207 3207 3209 3211 3212 3214 3215 3216 3218 3220 3222 3223 3224 3226 3227 3228 3229 3229 3230 3230 3231 3231 3232 3233 3233 3234 3235 3235 3235 3236 3237 3237 3238 3238 3239 3240 3241 3241 3241 3241
3117 3119 3120 3122 3124 3126 3129 3131 3133 3136 3138 3141 3144 3146 3148 3150 3152 3153 3155 3158 3160 3162 3164 3167 3170 3173 3176 3178 3179 3181 3183 3184 3186 3188 3190 3192 3193 3195 3196 3197 3198 3199 3201 3202 3203 3204 3205 3206 3207 3209 3211 3212 3213 3215 3218 3219 3221 3222 3223 3224 3225 3226 3227 3227 3228 3228 3229 3229 3230 3231 3232 3232 3233 3233 3234 3234 3235 3235 3236 3236 3237 3238 3238 3239 3239
3116 3117 3119 3120 3122 3124 3126 3128 3130 3132 3135 3138 3141 3143 3145 3147 3149 3151 3152 3155 3156 3158 3161 3163 3166 3170 3172 3174 3176 3178 3180 3181 3183 3185 3187 3189 3190 3191 3193 3194 3195 3196 3198 3199 3200 3201 3202 3203 3205 3206 3207 3209 3210 3213 3215 3217 3218 3220 3221 3221 3222 3223 3223 3224 3225 3225 3226 3227 3227 3228 3229 3230 3230 3231 3232 3232 3232 3233 3233 3233 3234 3235 3235 3236 3236
3116 3117 3117 3119 3120 3122 3124 3125 3127 3130 3132 3135 3138 3140 3142 3144 3145 3147 3149 3151 3152 3154 3157 3160 3163 3166 3168 3171 3173 3175 3176 3178 3180 3182 3184 3185 3187 3188 3189 3191 3192 3194 3195 3195 3196 3198 3199 3201 3202 3203 3204 3206 3207 3210 3212 3213 3215 3217 3218 3218 3219 3219 3220 3220 3221 3222 3223 3224 3224 3225 3226 3227 3228 3228 3229 3230 3230 3230 3231 3231 3231 3231 3232 3232 3233
3116 3116 3116 3117 3118 3120 3122 3124 3125 3127 3129 3132 3135 3137 3139 3141 3143 3145 3148 3149 3151 3152 3154 3156 3159 3163 3165 3167 3169 3171 3173 3175 3177 3179 3181 3182 3183 3185 3186 3188 3189 3190 3191 3192 3194 3195 3196 3198 3199 3200 3201 3203 3204 3207 3209 3210 3212 3213 3214 3215 3215 3215 3216 3216 3217 3218 3219 3220 3221 3222 3223 3224 3225 3225 3226 3227 3228 3228 3228 3228 3228 3228 3229 3229 3230
3116 3117 3117 3116 3116 3118 3120 3122 3124 3125 3127 3129 3132 3134 3136 3139 3142 3145 3146 3148 3151 3154 3156 3156 3157 3159 3161 3164 3165 3167 3170 3172 3174 3176 3177 3179 3180 3182 3183 3184 3186 3187 3188 3190 3191 3192 3193 3195 3196 3197 3198 3199 3201 3204 3206 3207 3208 3210 3211 3211 3211 3211 3212 3212 3213 3214 3215 3216 3218 3219 3219 3220 3222 3223 3223 3224 3225 3226 3226 3226 3226 3226 3226 3227 3227
3117 3118 3118 3117 3116 3117 3119 3120 3122 3124 3125 3126 3128 3130 3132 3136 3140 3142 3144 3146 3148 3151 3154 3156 3156 3156 3158 3160 3162 3164 3166 3169 3171 3173 3174 3176 3177 3179 3180 3181 3182 3184 3185 3186 3188 3189 3191 3192 3193 3194 3195 3196 3198 3201 3202 3204 3205 3206 3207 3207 3207 3207 3207 3208 3209 3210 3211 3213 3214 3215 3216 3217 3218 3220 3221 3222 3223 3223 3223 3223 3224 3224 3224 3224 3225
3118 3119 3118 3118 3117 3117 3118 3119 3120 3121 3122 3124 3125 3126 3128 3132 3136 3138 3141 3143 3145 3146 3149 3151 3153 3153 3154 3156 3158 3160 3162 3165 3167 3168 3170 3172 3174 3176 3177 3178 3179 3180 3182 3183 3185 3186 3188 3189 3190 3191 3192 3193 3195 3197 3199 3200 3202 3202 3202 3202 3202 3203 3203 3204 3205 3207 3208 3209 3210 3212 3213 3214 3215 3217 3218 3220 3220 3220 3220 3220 3221 3222 3222 3223 3223
3118 3119 3119 3118 3118 3118 3118 3119 3119 3120 3121 3123 3124 3124 3126 3129 3132 3136 3138 3140 3142 3144 3145 3147 3149 3150 3151 3153 3155 3157 3159 3160 3162 3164 3166 3168 3170 3172 3174 3175 3176 3177 3178 3180 3182 3183 3184 3186 3187 3188 3189 3190 3192 3194 3196 3197 3198 3199 3198 3198 3198 3199 3199 3200 3202 3203 3205 3206 3207 3208 3209 3211 3212 3214 3216 3217 3217 3217 3217 3218 3219 3220 3220 3221 3222
3116 3118 3118 3118 3118 3119 3119 3119 3119 3119 3120 3122 3122 3123 3125 3127 3130 3133 3136 3137 3139 3141 3142 3143 3144 3146 3147 3149 3151 3153 3155 3156 3158 3159 3161 3164 3166 3168 3170 3171 3172 3174 3175 3177 3178 3179 3180 3182 3183 3185 3186 3187 3188 3190 3192 3193 3194 3195 3195 3195 3195 3195 3195 3196 3198 3199 3201 3202 3203 3205 3206 3207 3209 3211 3213 3214 3214 3215 3215 3216 3217 3216 3217 3219 3221
3116 3116 3117 3117 3118 3118 3119 3119 3119 3119 3119 3120 3121 3123 3125 3127 3128 3131 3133 3134 3136 3137 3139 3140 3140 3141 3143 3145 3147 3149 3151 3152 3154 3155 3157 3159 3161 3163 3165 3167 3168 3170 3172 3173 3174 3175 3176 3178 3180 3181 3183 3184 3185 3186 3188 3189 3190 3191 3191 3191 3191 3190 3191 3193 3194 3195 3197 3199 3200 3201 3202 3204 3205 3207 3209 3211 3212 3212 3213 3214 3214 3213 3214 3217 3218
3115 3115 3114 3115 3117 3117 3118 3119 3120 3120 3119 3118 3119 3121 3123 3124 3126 3128 3130 3131 3132 3134 3135 3136 3136 3137 3139 3140 3143 3145 3146 3148 3150 3151 3153 3155 3157 3159 3161 3163 3164 3166 3168 3169 3171 3172 3173 3174 3176 3178 3179 3180 3181 3183 3184 3185 3186 3187 3188 3188 3187 3187 3188 3189 3190 3192 3193 3195 3196 3198 3199 3201 3203 3204 3206 3208 3209 3210 3210 3211 3211 3211 3212 3213 3213
3110 3112 3112 3112 3113 3114 3116 3117 3118 3118 3118 3117 3118 3119 3121 3122 3124 3125 3126 3128 3129 3130 3131 3131 3132 3133 3135 3136 3139 3142 3143 3145 3146 3147 3149 3150 3153 3155 3157 3159 3160 3162 3164 3165 3167 3168 3169 3171 3172 3174 3175 3177 3178 3179 3180 3181 3183 3184 3184 3184 3184 3184 3185 3186 3187 3188 3189 3191 3193 3194 3196 3198 3200 3202 3203 3205 3206 3207 3208 3208 3208 3209 3209 3209 3209
3105 3108 3110 3110 3110 3110 3112 3114 3115 3116 3116 3116 3116 3117 3118 3120 3121 3121 3122 3124 3125 3127 3128 3128 3129 3131 3132 3133 3136 3139 3141 3142 3144 3145 3146 3147 3149 3151 3153 3155 3157 3158 3160 3162 3163 3165 3166 3167 3169 3170 3172 3173 3174 3175 3176 3177 3179 3180 3181 3181 3181 3181 3182 3183 3183 3184 3186 3188 3189 3191 3193 3195 3197 3199 3200 3202 3203 3204 3204 3205 3206 3206 3206 3205 3205
3100 3103 3106 3108 3109 3108 3108 3110 3112 3114 3114 3113 3113 3114 3116 3117 3117 3117 3118 3119 3121 3123 3124 3126 3127 3129 3131 3132 3133 3135 3137 3139 3141 3143 3144 3145 3146 3147 3149 3151 3153 3155 3156 3158 3160 3162 3163 3164 3165 3167 3169 3170 3171 3172 3173 3174 3175 3176 3177 3178 3178 3178 3179 3179 3179 3180 3182 3184 3185 3187 3190 3192 3194 3196 3197 3198 3199 3200 3201 3201 3202 3203 3202 3202 3201
3096 3097 3100 3103 3106 3106 3106 3106 3107 3109 3111 3111 3111 3111 3112 3114 3114 3114 3114 3116 3118 3120 3121 3123 3125 3127 3128 3130 3131 3132 3134 3136 3138 3139 3141 3142 3144 3145 3146 3148 3150 3151 3153 3154 3156 3158 3159 3160 3162 3164 3165 3167 3168 3169 3169 3170 3172 3173 3173 3174 3175 3175 3176 3176 3176 3177 3179 3180 3182 3184 3186 3188 3190 3192 3193 3194 3195 3196 3197 3198 3198 3199 3199 3198 3198
3092 3093 3094 3096 3099 3102 3103 3103 3104 3105 3107 3109 3110 3109 3110 3111 3112 3112 3113 3115 3117 3117 3118 3120 3122 3124 3125 3127 3128 3129 3131 3132 3134 3135 3137 3138 3140 3141 3143 3144 3146 3148 3149 3151 3153 3154 3156 3157 3158 3160 3162 3163 3164 3166 3167 3167 3168 3169 3169 3170 3171 3171 3172 3173 3172 3173 3175 3177 3179 3181 3183 3184 3186 3188 3189 3190 3191 3193 3193 3194 3194 3195 3195 3195 3195
3089 3089 3090 3091 3093 3096 3098 3100 3102 3103 3104 3106 3107 3108 3108 3108 3109 3111 3112 3113 3114 3115 3116 3117 3117 3119 3121 3123 3124 3125 3127 3129 3130 3132 3133 3134 3135 3136 3138 3140 3142 3144 3146 3148 3149 3150 3152 3153 3155 3157 3158 3159 3160 3162 3163 3164 3164 3165 3166 3167 3167 3168 3169 3169 3169 3170 3172 3174 3176 3178 3179 3180 3182 3184 3185 3186 3188 3189 3190 3190 3191 3191 3191 3191 3191
3084 3085 3086 3087 3088 3091 3094 3097 3099 3101 3101 3102 3104 3105 3105 3105 3105 3107 3108 3110 3111 3112 3112 3113 3114 3115 3117 3119 3120 3121 3123 3125 3126 3128 3129 3130 3132 3133 3134 3135 3138 3140 3142 3144 3146 3147 3148 3150 3152 3153 3154 3155 3156 3157 3159 3160 3161 3162 3163 3163 3163 3164 3165 3165 3165 3167 3169 3171 3172 3173 3174 3176 3178 3180 3182 3183 3185 3186 3186 3187 3188 3188 3187 3186 3186
3080 3080 3081 3082 3084 3086 3089 3092 3095 3097 3098 3099 3100 3101 3102 3102 3102 3103 3104 3105 3106 3107 3108 3110 3111 3112 3113 3115 3116 3118 3119 3121 3122 3123 3124 3126 3128 3129 3130 3131 3133 3136 3138 3140 3142 3143 3145 3147 3148 3149 3149 3150 3151 3153 3155 3156 3156 3157 3158 3159 3159 3161 3161 3162 3163 3164 3166 3166 3167 3168 3169 3171 3173 3176 3178 3179 3181 3182 3183 3184 3185 3184 3183 3182 3181
3075 3076 3077 3078 3079 3081 3084 3086 3090 3092 3094 3096 3096 3096 3097 3098 3099 3099 3099 3100 3101 3103 3104 3106 3107 3108 3109 3111 3112 3114 3115 3117 3118 3119 3120 3122 3123 3125 3126 3127 3129 3131 3133 3135 3137 3139 3141 3143 3143 3144 3144 3145 3147 3150 3151 3151 3151 3152 3153 3154 3156 3157 3158 3158 3160 3160 3160 3161 3161 3162 3164 3166 3169 3171 3173 3175 3176 3178 3178 3179 3180 3181 3179 3177 3177
3069 3071 3072 3073 3074 3076 3078 3081 3084 3087 3089 3092 3093 3093 3093 3094 3095 3095 3096 3096 3097 3099 3100 3102 3103 3104 3105 3107 3108 3109 3111 3112 3114 3115 3116 3117 3119 3120 3121 3123 3125 3127 3129 3131 3133 3135 3137 3138 3138 3139 3140 3141 3143 3145 3145 3146 3146 3148 3148 3150 3151 3152 3153 3153 3154 3154 3154 3155 3156 3157 3159 3162 3164 3166 3168 3170 3171 3172 3173 3175 3177 3177 3175 3173 3174